contact:dominique.lefevre@mio.osupytheas.fr, maurice.libes@osupytheas.fr, didier.mallarino@osupytheas.fr
Project:EMSO http://www.emso-fr.org/EMSO-France
Depth: 2436.0 m
Title:EMSO Ligure Ouest : Data MII capteur MICROCAT
DateTime_Computer,Latitude,Longitude,Temperature,Conductivity,Pressure,DateTime_Instrument
DateTime_Computer,Latitude,Longitude,degC,S m-1,dbar,DateTime_Instrument
2020-09-30T00:01:11Z,42.805,6.029,13.2980,4.60003,2470.11,2020-9-30T02:02:04Z
2020-09-30T00:04:14Z,42.805,6.029,13.2987,4.59988,2470.124,2020-9-30T02:05:07Z
2020-09-30T00:07:17Z,42.805,6.029,13.2990,4.60011,2470.124,2020-9-30T02:08:10Z
2020-09-30T00:10:20Z,42.805,6.029,13.2983,4.59990,2470.1,2020-9-30T02:11:13Z
2020-09-30T00:13:23Z,42.805,6.029,13.2982,4.59988,2470.11,2020-9-30T02:14:16Z
2020-09-30T00:16:27Z,42.805,6.029,13.2981,4.59984,2470.124,2020-9-30T02:17:19Z
2020-09-30T00:19:30Z,42.805,6.029,13.2981,4.59990,2470.087,2020-9-30T02:20:23Z
2020-09-30T00:22:33Z,42.805,6.029,13.2983,4.59988,2470.1,2020-9-30T02:23:26Z
2020-09-30T00:25:36Z,42.805,6.029,13.2983,4.59991,2470.087,2020-9-30T02:26:29Z
2020-09-30T00:28:39Z,42.805,6.029,13.2981,4.59990,2470.077,2020-9-30T02:29:32Z
2020-09-30T00:31:42Z,42.805,6.029,13.2983,4.59990,2470.063,2020-9-30T02:32:35Z
2020-09-30T00:34:45Z,42.805,6.029,13.2979,4.59987,2470.1,2020-9-30T02:35:38Z
2020-09-30T00:37:48Z,42.805,6.029,13.2985,4.59989,2470.1,2020-9-30T02:38:41Z
2020-09-30T00:40:52Z,42.805,6.029,13.2974,4.59988,2470.04,2020-9-30T02:41:44Z
2020-09-30T00:43:55Z,42.805,6.029,13.2985,4.60002,2470.077,2020-9-30T02:44:48Z
2020-09-30T00:46:58Z,42.805,6.029,13.2986,4.59986,2470.077,2020-9-30T02:47:51Z
2020-09-30T00:50:01Z,42.805,6.029,13.2979,4.59991,2470.124,2020-9-30T02:50:54Z
2020-09-30T00:53:04Z,42.805,6.029,13.2984,4.59990,2470.063,2020-9-30T02:53:57Z
2020-09-30T00:56:07Z,42.805,6.029,13.2980,4.59990,2470.087,2020-9-30T02:57:00Z
2020-09-30T00:59:10Z,42.805,6.029,13.2983,4.59991,2470.04,2020-9-30T03:00:03Z
2020-09-30T01:02:13Z,42.805,6.029,13.2985,4.60005,2470.077,2020-9-30T03:03:06Z
2020-09-30T01:05:17Z,42.805,6.029,13.2984,4.59996,2470.063,2020-9-30T03:06:09Z
2020-09-30T01:08:20Z,42.805,6.029,13.2982,4.59988,2470.04,2020-9-30T03:09:12Z
2020-09-30T01:11:23Z,42.805,6.029,13.2982,4.60008,2470.077,2020-9-30T03:12:16Z
2020-09-30T01:14:26Z,42.805,6.029,13.2980,4.59991,2470.063,2020-9-30T03:15:19Z
2020-09-30T01:17:29Z,42.805,6.029,13.2980,4.59996,2470.04,2020-9-30T03:18:22Z
2020-09-30T01:20:32Z,42.805,6.029,13.2982,4.59987,2470.124,2020-9-30T03:21:25Z
2020-09-30T01:23:35Z,42.805,6.029,13.2984,4.59988,2470.063,2020-9-30T03:24:28Z
2020-09-30T01:26:38Z,42.805,6.029,13.2978,4.59992,2470.087,2020-9-30T03:27:31Z
2020-09-30T01:29:42Z,42.805,6.029,13.2982,4.59994,2470.087,2020-9-30T03:30:34Z
2020-09-30T01:32:45Z,42.805,6.029,13.2993,4.60013,2470.04,2020-9-30T03:33:37Z
2020-09-30T01:35:48Z,42.805,6.029,13.2985,4.59994,2470.053,2020-9-30T03:36:41Z
2020-09-30T01:38:51Z,42.805,6.029,13.2976,4.59990,2470.063,2020-9-30T03:39:44Z
2020-09-30T01:41:54Z,42.805,6.029,13.2988,4.59997,2470.063,2020-9-30T03:42:47Z
2020-09-30T01:44:57Z,42.805,6.029,13.2986,4.60014,2470.077,2020-9-30T03:45:50Z
2020-09-30T01:48:00Z,42.805,6.029,13.2983,4.59989,2470.053,2020-9-30T03:48:53Z
2020-09-30T01:51:03Z,42.805,6.029,13.2980,4.59993,2470.077,2020-9-30T03:51:56Z
2020-09-30T01:54:07Z,42.805,6.029,13.2982,4.59994,2470.077,2020-9-30T03:54:59Z
2020-09-30T01:57:10Z,42.805,6.029,13.2982,4.59991,2470.063,2020-9-30T03:58:02Z
2020-09-30T02:00:13Z,42.805,6.029,13.2980,4.59988,2470.1,2020-9-30T04:01:06Z
2020-09-30T02:03:16Z,42.805,6.029,13.2981,4.59988,2470.063,2020-9-30T04:04:09Z
2020-09-30T02:06:19Z,42.805,6.029,13.2983,4.59990,2470.1,2020-9-30T04:07:12Z
2020-09-30T02:09:22Z,42.805,6.029,13.2983,4.59995,2470.063,2020-9-30T04:10:15Z
2020-09-30T02:12:25Z,42.805,6.029,13.2978,4.59989,2470.049,2020-9-30T04:13:18Z
2020-09-30T02:15:28Z,42.805,6.029,13.2986,4.60009,2470.063,2020-9-30T04:16:21Z
2020-09-30T02:18:32Z,42.805,6.029,13.2991,4.60000,2470.077,2020-9-30T04:19:24Z
2020-09-30T02:21:35Z,42.805,6.029,13.2981,4.59995,2470.077,2020-9-30T04:22:27Z
2020-09-30T02:24:38Z,42.805,6.029,13.2981,4.59995,2470.063,2020-9-30T04:25:31Z
2020-09-30T02:27:41Z,42.805,6.029,13.2978,4.59991,2470.077,2020-9-30T04:28:34Z
2020-09-30T02:30:44Z,42.805,6.029,13.2983,4.59991,2470.073,2020-9-30T04:31:37Z
2020-09-30T02:33:47Z,42.805,6.029,13.2983,4.59991,2470.077,2020-9-30T04:34:40Z
2020-09-30T02:36:50Z,42.805,6.029,13.2979,4.59989,2470.063,2020-9-30T04:37:43Z
2020-09-30T02:39:53Z,42.805,6.029,13.2983,4.59992,2470.087,2020-9-30T04:40:46Z
2020-09-30T02:42:56Z,42.805,6.029,13.2981,4.59997,2470.1,2020-9-30T04:43:49Z
2020-09-30T02:46:00Z,42.805,6.029,13.2982,4.59998,2470.087,2020-9-30T04:46:52Z
2020-09-30T02:49:03Z,42.805,6.029,13.2979,4.59996,2470.1,2020-9-30T04:49:56Z
2020-09-30T02:52:06Z,42.805,6.029,13.2982,4.59993,2470.087,2020-9-30T04:52:59Z
2020-09-30T02:55:09Z,42.805,6.029,13.2984,4.59999,2470.087,2020-9-30T04:56:02Z
2020-09-30T02:58:12Z,42.805,6.029,13.2987,4.60000,2470.1,2020-9-30T04:59:05Z
2020-09-30T03:01:15Z,42.805,6.029,13.2989,4.59998,2470.11,2020-9-30T05:02:08Z
2020-09-30T03:04:18Z,42.805,6.029,13.2983,4.59993,2470.11,2020-9-30T05:05:11Z
2020-09-30T03:07:21Z,42.805,6.029,13.2983,4.59996,2470.087,2020-9-30T05:08:14Z
2020-09-30T03:10:25Z,42.805,6.029,13.2986,4.60003,2470.1,2020-9-30T05:11:17Z
2020-09-30T03:13:28Z,42.805,6.029,13.2986,4.59994,2470.133,2020-9-30T05:14:21Z
2020-09-30T03:16:31Z,42.805,6.029,13.2983,4.59999,2470.11,2020-9-30T05:17:24Z
2020-09-30T03:19:34Z,42.805,6.029,13.2980,4.59988,2470.087,2020-9-30T05:20:27Z
2020-09-30T03:22:37Z,42.805,6.029,13.2979,4.59992,2470.087,2020-9-30T05:23:30Z
2020-09-30T03:25:40Z,42.805,6.029,13.2986,4.59996,2470.11,2020-9-30T05:26:33Z
2020-09-30T03:28:43Z,42.805,6.029,13.2980,4.59995,2470.147,2020-9-30T05:29:36Z
2020-09-30T03:31:46Z,42.805,6.029,13.2984,4.59993,2470.124,2020-9-30T05:32:39Z
2020-09-30T03:34:50Z,42.805,6.029,13.2980,4.60002,2470.11,2020-9-30T05:35:42Z
2020-09-30T03:37:53Z,42.805,6.029,13.2986,4.60013,2470.147,2020-9-30T05:38:46Z
2020-09-30T03:40:56Z,42.805,6.029,13.2985,4.59999,2470.133,2020-9-30T05:41:49Z
2020-09-30T03:43:59Z,42.805,6.029,13.2988,4.59998,2470.11,2020-9-30T05:44:52Z
2020-09-30T03:47:02Z,42.805,6.029,13.2982,4.59999,2470.156,2020-9-30T05:47:55Z
2020-09-30T03:50:05Z,42.805,6.029,13.2983,4.59994,2470.11,2020-9-30T05:50:58Z
2020-09-30T03:53:08Z,42.805,6.029,13.2982,4.60012,2470.124,2020-9-30T05:54:01Z
2020-09-30T03:56:11Z,42.805,6.029,13.2984,4.60011,2470.124,2020-9-30T05:57:04Z
2020-09-30T03:59:15Z,42.805,6.029,13.2982,4.59998,2470.133,2020-9-30T06:00:07Z
2020-09-30T04:02:18Z,42.805,6.029,13.2988,4.59996,2470.171,2020-9-30T06:03:11Z
2020-09-30T04:05:21Z,42.805,6.029,13.2983,4.59994,2470.133,2020-9-30T06:06:14Z
2020-09-30T04:08:24Z,42.805,6.029,13.2982,4.59997,2470.147,2020-9-30T06:09:17Z
2020-09-30T04:11:27Z,42.805,6.029,13.2984,4.60006,2470.133,2020-9-30T06:12:20Z
2020-09-30T04:14:30Z,42.805,6.029,13.2979,4.59988,2470.133,2020-9-30T06:15:23Z
2020-09-30T04:17:33Z,42.805,6.029,13.2984,4.59992,2470.171,2020-9-30T06:18:26Z
2020-09-30T04:20:36Z,42.805,6.029,13.2982,4.59991,2470.18,2020-9-30T06:21:29Z
2020-09-30T04:23:40Z,42.805,6.029,13.2982,4.59996,2470.171,2020-9-30T06:24:32Z
2020-09-30T04:26:43Z,42.805,6.029,13.2983,4.59998,2470.18,2020-9-30T06:27:35Z
2020-09-30T04:29:46Z,42.805,6.029,13.2990,4.60003,2470.156,2020-9-30T06:30:39Z
2020-09-30T04:32:49Z,42.805,6.029,13.2988,4.59999,2470.171,2020-9-30T06:33:42Z
2020-09-30T04:35:52Z,42.805,6.029,13.2985,4.60001,2470.156,2020-9-30T06:36:45Z
2020-09-30T04:38:55Z,42.805,6.029,13.2983,4.59999,2470.133,2020-9-30T06:39:48Z
2020-09-30T04:41:58Z,42.805,6.029,13.2983,4.59998,2470.18,2020-9-30T06:42:51Z
2020-09-30T04:45:01Z,42.805,6.029,13.2976,4.59991,2470.171,2020-9-30T06:45:54Z
2020-09-30T04:48:05Z,42.805,6.029,13.2985,4.60000,2470.171,2020-9-30T06:48:57Z
2020-09-30T04:51:08Z,42.805,6.029,13.2987,4.59994,2470.18,2020-9-30T06:52:00Z
2020-09-30T04:54:11Z,42.805,6.029,13.2987,4.60006,2470.18,2020-9-30T06:55:04Z
2020-09-30T04:57:14Z,42.805,6.029,13.2984,4.59993,2470.18,2020-9-30T06:58:07Z
2020-09-30T05:00:17Z,42.805,6.029,13.2986,4.59997,2470.166,2020-9-30T07:01:10Z
2020-09-30T05:03:20Z,42.805,6.029,13.2983,4.59998,2470.171,2020-9-30T07:04:13Z
2020-09-30T05:06:23Z,42.805,6.029,13.2981,4.59992,2470.156,2020-9-30T07:07:16Z
2020-09-30T05:09:26Z,42.805,6.029,13.2983,4.59995,2470.18,2020-9-30T07:10:19Z
2020-09-30T05:12:29Z,42.805,6.029,13.2986,4.59996,2470.194,2020-9-30T07:13:22Z
2020-09-30T05:15:33Z,42.805,6.029,13.2983,4.59998,2470.18,2020-9-30T07:16:25Z
2020-09-30T05:18:36Z,42.805,6.029,13.2986,4.60001,2470.18,2020-9-30T07:19:29Z
2020-09-30T05:21:39Z,42.805,6.029,13.2982,4.59992,2470.217,2020-9-30T07:22:32Z
2020-09-30T05:24:42Z,42.805,6.029,13.2982,4.60000,2470.194,2020-9-30T07:25:35Z
2020-09-30T05:27:45Z,42.805,6.029,13.2983,4.59999,2470.194,2020-9-30T07:28:38Z
2020-09-30T05:30:48Z,42.805,6.029,13.2985,4.60008,2470.203,2020-9-30T07:31:41Z
2020-09-30T05:33:51Z,42.805,6.029,13.2980,4.59999,2470.156,2020-9-30T07:34:44Z
2020-09-30T05:36:54Z,42.805,6.029,13.2983,4.60002,2470.18,2020-9-30T07:37:47Z
2020-09-30T05:39:58Z,42.805,6.029,13.2986,4.59996,2470.203,2020-9-30T07:40:50Z
2020-09-30T05:43:01Z,42.805,6.029,13.2987,4.59993,2470.194,2020-9-30T07:43:54Z
2020-09-30T05:46:04Z,42.805,6.029,13.2986,4.59994,2470.203,2020-9-30T07:46:57Z
2020-09-30T05:49:07Z,42.805,6.029,13.2990,4.59995,2470.194,2020-9-30T07:50:00Z
2020-09-30T05:52:10Z,42.805,6.029,13.2990,4.60008,2470.203,2020-9-30T07:53:03Z
2020-09-30T05:55:13Z,42.805,6.029,13.2981,4.60001,2470.203,2020-9-30T07:56:06Z
2020-09-30T05:58:16Z,42.805,6.029,13.2977,4.60005,2470.203,2020-9-30T07:59:09Z
2020-09-30T06:01:19Z,42.805,6.029,13.2978,4.59996,2470.194,2020-9-30T08:02:12Z
2020-09-30T06:04:23Z,42.805,6.029,13.2984,4.59996,2470.18,2020-9-30T08:05:15Z
2020-09-30T06:07:26Z,42.805,6.029,13.2983,4.59992,2470.194,2020-9-30T08:08:19Z
2020-09-30T06:10:29Z,42.805,6.029,13.2983,4.59999,2470.18,2020-9-30T08:11:22Z
2020-09-30T06:13:32Z,42.805,6.029,13.2986,4.60021,2470.203,2020-9-30T08:14:25Z
2020-09-30T06:16:35Z,42.805,6.029,13.2986,4.60011,2470.203,2020-9-30T08:17:28Z
2020-09-30T06:19:38Z,42.805,6.029,13.2996,4.60006,2470.18,2020-9-30T08:20:31Z
2020-09-30T06:22:41Z,42.805,6.029,13.2987,4.60006,2470.203,2020-9-30T08:23:34Z
2020-09-30T06:25:44Z,42.805,6.029,13.2984,4.59999,2470.227,2020-9-30T08:26:37Z
2020-09-30T06:28:48Z,42.805,6.029,13.2981,4.59992,2470.203,2020-9-30T08:29:40Z
2020-09-30T06:31:51Z,42.805,6.029,13.2979,4.59988,2470.217,2020-9-30T08:32:44Z
2020-09-30T06:34:54Z,42.805,6.029,13.2982,4.59989,2470.217,2020-9-30T08:35:47Z
2020-09-30T06:37:57Z,42.805,6.029,13.2983,4.59993,2470.203,2020-9-30T08:38:50Z
2020-09-30T06:41:00Z,42.805,6.029,13.2986,4.59993,2470.18,2020-9-30T08:41:53Z
2020-09-30T06:44:03Z,42.805,6.029,13.2983,4.60006,2470.203,2020-9-30T08:44:56Z
2020-09-30T06:47:06Z,42.805,6.029,13.2983,4.60019,2470.18,2020-9-30T08:47:59Z
2020-09-30T06:50:09Z,42.805,6.029,13.2985,4.60019,2470.203,2020-9-30T08:51:02Z
2020-09-30T06:53:13Z,42.805,6.029,13.2985,4.60005,2470.203,2020-9-30T08:54:05Z
2020-09-30T06:56:16Z,42.805,6.029,13.2985,4.59999,2470.18,2020-9-30T08:57:09Z
2020-09-30T06:59:19Z,42.805,6.029,13.2979,4.59996,2470.18,2020-9-30T09:00:12Z
2020-09-30T07:02:22Z,42.805,6.029,13.2986,4.59999,2470.203,2020-9-30T09:03:15Z
2020-09-30T07:05:25Z,42.805,6.029,13.2979,4.59994,2470.217,2020-9-30T09:06:18Z
2020-09-30T07:08:28Z,42.805,6.029,13.2983,4.59997,2470.189,2020-9-30T09:09:21Z
2020-09-30T07:11:31Z,42.805,6.029,13.2990,4.59996,2470.194,2020-9-30T09:12:24Z
2020-09-30T07:14:34Z,42.805,6.029,13.2982,4.59994,2470.194,2020-9-30T09:15:27Z
2020-09-30T07:17:38Z,42.805,6.029,13.2984,4.59996,2470.18,2020-9-30T09:18:30Z
2020-09-30T07:20:41Z,42.805,6.029,13.2983,4.59991,2470.203,2020-9-30T09:21:33Z
2020-09-30T07:23:44Z,42.805,6.029,13.2988,4.59998,2470.18,2020-9-30T09:24:37Z
2020-09-30T07:26:47Z,42.805,6.029,13.2983,4.59997,2470.203,2020-9-30T09:27:40Z
2020-09-30T07:29:50Z,42.805,6.029,13.2980,4.60004,2470.18,2020-9-30T09:30:43Z
2020-09-30T07:32:53Z,42.805,6.029,13.2998,4.60006,2470.24,2020-9-30T09:33:46Z
2020-09-30T07:35:56Z,42.805,6.029,13.2986,4.59997,2470.203,2020-9-30T09:36:49Z
2020-09-30T07:38:59Z,42.805,6.029,13.2987,4.60006,2470.156,2020-9-30T09:39:52Z
2020-09-30T07:42:03Z,42.805,6.029,13.2986,4.59997,2470.18,2020-9-30T09:42:55Z
2020-09-30T07:45:06Z,42.805,6.029,13.2984,4.60010,2470.171,2020-9-30T09:45:58Z
2020-09-30T07:48:09Z,42.805,6.029,13.2991,4.60013,2470.171,2020-9-30T09:49:02Z
2020-09-30T07:51:12Z,42.805,6.029,13.2986,4.60021,2470.18,2020-9-30T09:52:05Z
2020-09-30T07:54:15Z,42.805,6.029,13.2991,4.60009,2470.156,2020-9-30T09:55:08Z
2020-09-30T07:57:18Z,42.805,6.029,13.2986,4.60039,2470.18,2020-9-30T09:58:11Z
2020-09-30T08:00:21Z,42.805,6.029,13.2982,4.60015,2470.156,2020-9-30T10:01:14Z
2020-09-30T08:03:24Z,42.805,6.029,13.2985,4.60013,2470.18,2020-9-30T10:04:17Z
2020-09-30T08:06:27Z,42.805,6.029,13.2982,4.60005,2470.217,2020-9-30T10:07:20Z
2020-09-30T08:09:31Z,42.805,6.029,13.2986,4.60000,2470.156,2020-9-30T10:10:23Z
2020-09-30T08:12:34Z,42.805,6.029,13.2990,4.60013,2470.156,2020-9-30T10:13:27Z
2020-09-30T08:15:37Z,42.805,6.029,13.2989,4.60005,2470.171,2020-9-30T10:16:30Z
2020-09-30T08:18:40Z,42.805,6.029,13.2985,4.59998,2470.166,2020-9-30T10:19:33Z
2020-09-30T08:21:43Z,42.805,6.029,13.2982,4.59991,2470.171,2020-9-30T10:22:36Z
2020-09-30T08:24:46Z,42.805,6.029,13.2989,4.59996,2470.171,2020-9-30T10:25:39Z
2020-09-30T08:27:49Z,42.805,6.029,13.2989,4.59991,2470.217,2020-9-30T10:28:42Z
2020-09-30T08:30:53Z,42.805,6.029,13.2983,4.60017,2470.156,2020-9-30T10:31:45Z
2020-09-30T08:33:56Z,42.805,6.029,13.2990,4.60003,2470.147,2020-9-30T10:34:49Z
2020-09-30T08:36:59Z,42.805,6.029,13.2991,4.60001,2470.156,2020-9-30T10:37:52Z
2020-09-30T08:40:02Z,42.805,6.029,13.2991,4.60011,2470.171,2020-9-30T10:40:55Z
2020-09-30T08:43:05Z,42.805,6.029,13.2984,4.59997,2470.11,2020-9-30T10:43:58Z
2020-09-30T08:46:08Z,42.805,6.029,13.2983,4.60003,2470.171,2020-9-30T10:47:01Z
2020-09-30T08:49:11Z,42.805,6.029,13.2989,4.60000,2470.124,2020-9-30T10:50:04Z
2020-09-30T08:52:14Z,42.805,6.029,13.2993,4.60009,2470.133,2020-9-30T10:53:07Z
2020-09-30T08:55:18Z,42.805,6.029,13.2982,4.60001,2470.133,2020-9-30T10:56:10Z
2020-09-30T08:58:21Z,42.805,6.029,13.2985,4.60011,2470.156,2020-9-30T10:59:14Z
2020-09-30T09:01:24Z,42.805,6.029,13.2999,4.60017,2470.133,2020-9-30T11:02:17Z
2020-09-30T09:04:27Z,42.805,6.029,13.2998,4.60022,2470.147,2020-9-30T11:05:20Z
2020-09-30T09:07:30Z,42.805,6.029,13.2993,4.60016,2470.133,2020-9-30T11:08:23Z
2020-09-30T09:10:33Z,42.805,6.029,13.2993,4.60011,2470.133,2020-9-30T11:11:26Z
2020-09-30T09:13:36Z,42.805,6.029,13.2993,4.60009,2470.156,2020-9-30T11:14:29Z
2020-09-30T09:16:39Z,42.805,6.029,13.2990,4.60022,2470.133,2020-9-30T11:17:32Z
2020-09-30T09:19:43Z,42.805,6.029,13.2986,4.60004,2470.156,2020-9-30T11:20:35Z
2020-09-30T09:22:46Z,42.805,6.029,13.2992,4.60007,2470.156,2020-9-30T11:23:39Z
2020-09-30T09:25:49Z,42.805,6.029,13.2991,4.60021,2470.11,2020-9-30T11:26:42Z
2020-09-30T09:28:52Z,42.805,6.029,13.2990,4.60017,2470.147,2020-9-30T11:29:45Z
2020-09-30T09:31:55Z,42.805,6.029,13.2984,4.60003,2470.171,2020-9-30T11:32:48Z
2020-09-30T09:34:58Z,42.805,6.029,13.2985,4.60001,2470.11,2020-9-30T11:35:51Z
2020-09-30T09:38:01Z,42.805,6.029,13.2989,4.60001,2470.147,2020-9-30T11:38:54Z
2020-09-30T09:41:04Z,42.805,6.029,13.2991,4.60036,2470.147,2020-9-30T11:41:57Z
2020-09-30T09:44:08Z,42.805,6.029,13.2988,4.60008,2470.11,2020-9-30T11:45:00Z
2020-09-30T09:47:11Z,42.805,6.029,13.2984,4.60028,2470.11,2020-9-30T11:48:04Z
2020-09-30T09:50:14Z,42.805,6.029,13.2993,4.60011,2470.147,2020-9-30T11:51:07Z
2020-09-30T09:53:17Z,42.805,6.029,13.3005,4.60033,2470.11,2020-9-30T11:54:10Z
2020-09-30T09:56:20Z,42.805,6.029,13.3001,4.60014,2470.11,2020-9-30T11:57:13Z
2020-09-30T09:59:23Z,42.805,6.029,13.2990,4.60006,2470.147,2020-9-30T12:00:16Z
2020-09-30T10:02:26Z,42.805,6.029,13.2986,4.60024,2470.133,2020-9-30T12:03:19Z
2020-09-30T10:05:30Z,42.805,6.029,13.2990,4.60016,2470.133,2020-9-30T12:06:22Z
2020-09-30T10:08:33Z,42.805,6.029,13.2988,4.60009,2470.087,2020-9-30T12:09:25Z
2020-09-30T10:11:36Z,42.805,6.029,13.3001,4.60014,2470.11,2020-9-30T12:12:29Z
2020-09-30T10:14:39Z,42.805,6.029,13.2983,4.60017,2470.124,2020-9-30T12:15:32Z
2020-09-30T10:17:42Z,42.805,6.029,13.2994,4.60041,2470.1,2020-9-30T12:18:35Z
2020-09-30T10:20:45Z,42.805,6.029,13.2999,4.60038,2470.11,2020-9-30T12:21:38Z
2020-09-30T10:23:48Z,42.805,6.029,13.2996,4.60020,2470.11,2020-9-30T12:24:41Z
2020-09-30T10:26:51Z,42.805,6.029,13.2986,4.60012,2470.063,2020-9-30T12:27:44Z
2020-09-30T10:29:55Z,42.805,6.029,13.2991,4.60017,2470.124,2020-9-30T12:30:47Z
2020-09-30T10:32:58Z,42.805,6.029,13.2993,4.60016,2470.11,2020-9-30T12:33:50Z
2020-09-30T10:36:01Z,42.805,6.029,13.2990,4.60009,2470.087,2020-9-30T12:36:54Z
2020-09-30T10:39:04Z,42.805,6.029,13.2996,4.60013,2470.124,2020-9-30T12:39:57Z
2020-09-30T10:42:07Z,42.805,6.029,13.2989,4.60002,2470.1,2020-9-30T12:43:00Z
2020-09-30T10:45:10Z,42.805,6.029,13.2985,4.59994,2470.049,2020-9-30T12:46:03Z
2020-09-30T10:48:13Z,42.805,6.029,13.2989,4.60014,2470.087,2020-9-30T12:49:06Z
2020-09-30T10:51:16Z,42.805,6.029,13.2993,4.60011,2470.1,2020-9-30T12:52:09Z
2020-09-30T10:54:20Z,42.805,6.029,13.2986,4.60021,2470.087,2020-9-30T12:55:12Z
2020-09-30T10:57:23Z,42.805,6.029,13.2998,4.60017,2470.087,2020-9-30T12:58:16Z
2020-09-30T11:00:26Z,42.805,6.029,13.2989,4.60032,2470.063,2020-9-30T13:01:19Z
2020-09-30T11:03:29Z,42.805,6.029,13.2990,4.60010,2470.087,2020-9-30T13:04:22Z
2020-09-30T11:06:32Z,42.805,6.029,13.2982,4.59999,2470.077,2020-9-30T13:07:25Z
2020-09-30T11:09:35Z,42.805,6.029,13.2998,4.60015,2470.077,2020-9-30T13:10:28Z
2020-09-30T11:12:38Z,42.805,6.029,13.2998,4.60011,2470.096,2020-9-30T13:13:31Z
2020-09-30T11:15:41Z,42.805,6.029,13.2989,4.60012,2470.1,2020-9-30T13:16:34Z
2020-09-30T11:18:45Z,42.805,6.029,13.2988,4.60011,2470.077,2020-9-30T13:19:37Z
2020-09-30T11:21:48Z,42.805,6.029,13.2988,4.60006,2470.087,2020-9-30T13:22:41Z
2020-09-30T11:24:51Z,42.805,6.029,13.2986,4.60001,2470.053,2020-9-30T13:25:44Z
2020-09-30T11:27:54Z,42.805,6.029,13.2986,4.60004,2470.063,2020-9-30T13:28:47Z
2020-09-30T11:30:57Z,42.805,6.029,13.2982,4.60001,2470.077,2020-9-30T13:31:50Z
2020-09-30T11:34:00Z,42.805,6.029,13.2982,4.60001,2470.063,2020-9-30T13:34:53Z
2020-09-30T11:37:03Z,42.805,6.029,13.2991,4.60011,2470.063,2020-9-30T13:37:56Z
2020-09-30T11:40:06Z,42.805,6.029,13.2985,4.60004,2470.063,2020-9-30T13:40:59Z
2020-09-30T11:43:10Z,42.805,6.029,13.2990,4.60023,2470.04,2020-9-30T13:44:02Z
2020-09-30T11:46:13Z,42.805,6.029,13.2985,4.60003,2470.077,2020-9-30T13:47:06Z
2020-09-30T11:49:16Z,42.805,6.029,13.2996,4.60004,2470.077,2020-9-30T13:50:09Z
2020-09-30T11:52:19Z,42.805,6.029,13.2993,4.60028,2470.077,2020-9-30T13:53:12Z
2020-09-30T11:55:22Z,42.805,6.029,13.3004,4.60019,2470.053,2020-9-30T13:56:15Z
2020-09-30T11:58:25Z,42.805,6.029,13.2985,4.60010,2470.077,2020-9-30T13:59:18Z
2020-09-30T12:01:28Z,42.805,6.029,13.2987,4.60011,2470.04,2020-9-30T14:02:21Z
2020-09-30T12:04:31Z,42.805,6.029,13.2991,4.60027,2470.077,2020-9-30T14:05:24Z
2020-09-30T12:07:35Z,42.805,6.029,13.2990,4.60003,2470.063,2020-9-30T14:08:27Z
2020-09-30T12:10:38Z,42.805,6.029,13.2986,4.60010,2470.087,2020-9-30T14:11:31Z
2020-09-30T12:13:41Z,42.805,6.029,13.2985,4.60011,2470.04,2020-9-30T14:14:34Z
2020-09-30T12:16:44Z,42.805,6.029,13.2986,4.60009,2470.04,2020-9-30T14:17:37Z
2020-09-30T12:19:47Z,42.805,6.029,13.2988,4.60016,2470.077,2020-9-30T14:20:40Z
2020-09-30T12:22:50Z,42.805,6.029,13.2983,4.60019,2470.04,2020-9-30T14:23:43Z
2020-09-30T12:25:53Z,42.805,6.029,13.2990,4.60004,2470.017,2020-9-30T14:26:46Z
2020-09-30T12:28:56Z,42.805,6.029,13.2990,4.60002,2470.04,2020-9-30T14:29:49Z
2020-09-30T12:32:00Z,42.805,6.029,13.2987,4.60021,2470.04,2020-9-30T14:32:52Z
2020-09-30T12:35:03Z,42.805,6.029,13.2988,4.60034,2470.04,2020-9-30T14:35:56Z
2020-09-30T12:38:06Z,42.805,6.029,13.2993,4.60033,2470.03,2020-9-30T14:38:59Z
2020-09-30T12:41:09Z,42.805,6.029,13.2992,4.60027,2470.053,2020-9-30T14:42:02Z
2020-09-30T12:44:12Z,42.805,6.029,13.3000,4.60014,2470.053,2020-9-30T14:45:05Z
2020-09-30T12:47:15Z,42.805,6.029,13.3012,4.60031,2470.077,2020-9-30T14:48:08Z
2020-09-30T12:50:18Z,42.805,6.029,13.2991,4.60020,2470.04,2020-9-30T14:51:11Z
2020-09-30T12:53:22Z,42.805,6.029,13.2991,4.60003,2470.053,2020-9-30T14:54:14Z
2020-09-30T12:56:25Z,42.805,6.029,13.2991,4.60011,2470.053,2020-9-30T14:57:17Z
2020-09-30T12:59:28Z,42.805,6.029,13.2991,4.60027,2470.04,2020-9-30T15:00:21Z
2020-09-30T13:02:31Z,42.805,6.029,13.2984,4.60008,2470.053,2020-9-30T15:03:24Z
2020-09-30T13:05:34Z,42.805,6.029,13.2981,4.60001,2470.063,2020-9-30T15:06:27Z
2020-09-30T13:08:37Z,42.805,6.029,13.2993,4.60014,2470.077,2020-9-30T15:09:30Z
2020-09-30T13:11:40Z,42.805,6.029,13.2990,4.60003,2470.077,2020-9-30T15:12:33Z
2020-09-30T13:14:43Z,42.805,6.029,13.2998,4.60019,2470.04,2020-9-30T15:15:36Z
2020-09-30T13:17:46Z,42.805,6.029,13.3010,4.60016,2470.077,2020-9-30T15:18:39Z
2020-09-30T13:20:50Z,42.805,6.029,13.2985,4.60011,2470.063,2020-9-30T15:21:42Z
2020-09-30T13:23:53Z,42.805,6.029,13.2995,4.60025,2470.063,2020-9-30T15:24:46Z
2020-09-30T13:26:56Z,42.805,6.029,13.2995,4.60047,2470.077,2020-9-30T15:27:49Z
2020-09-30T13:29:59Z,42.805,6.029,13.2999,4.60015,2470.04,2020-9-30T15:30:52Z
2020-09-30T13:33:02Z,42.805,6.029,13.2993,4.60024,2470.063,2020-9-30T15:33:55Z
2020-09-30T13:36:05Z,42.805,6.029,13.2993,4.60011,2470.053,2020-9-30T15:36:58Z
2020-09-30T13:39:08Z,42.805,6.029,13.2989,4.60021,2470.077,2020-9-30T15:40:01Z
2020-09-30T13:42:12Z,42.805,6.029,13.2998,4.60021,2470.063,2020-9-30T15:43:04Z
2020-09-30T13:45:15Z,42.805,6.029,13.2990,4.60021,2470.017,2020-9-30T15:46:08Z
2020-09-30T13:48:18Z,42.805,6.029,13.2991,4.60021,2470.053,2020-9-30T15:49:11Z
2020-09-30T13:51:21Z,42.805,6.029,13.2993,4.60024,2470.087,2020-9-30T15:52:14Z
2020-09-30T13:54:24Z,42.805,6.029,13.2987,4.60006,2470.063,2020-9-30T15:55:17Z
2020-09-30T13:57:27Z,42.805,6.029,13.2998,4.60012,2470.077,2020-9-30T15:58:20Z
2020-09-30T14:00:30Z,42.805,6.029,13.2991,4.60023,2470.077,2020-9-30T16:01:23Z
2020-09-30T14:03:33Z,42.805,6.029,13.2996,4.60025,2470.063,2020-9-30T16:04:26Z
2020-09-30T14:06:37Z,42.805,6.029,13.3005,4.60024,2470.053,2020-9-30T16:07:29Z
2020-09-30T14:09:40Z,42.805,6.029,13.2996,4.60025,2470.063,2020-9-30T16:10:33Z
2020-09-30T14:12:43Z,42.805,6.029,13.2989,4.60010,2470.017,2020-9-30T16:13:36Z
2020-09-30T14:15:46Z,42.805,6.029,13.2995,4.60010,2470.063,2020-9-30T16:16:39Z
2020-09-30T14:18:49Z,42.805,6.029,13.2991,4.60029,2470.087,2020-9-30T16:19:42Z
2020-09-30T14:21:52Z,42.805,6.029,13.2987,4.60022,2470.063,2020-9-30T16:22:45Z
2020-09-30T14:24:55Z,42.805,6.029,13.2988,4.60003,2470.087,2020-9-30T16:25:48Z
2020-09-30T14:27:58Z,42.805,6.029,13.2996,4.60017,2470.063,2020-9-30T16:28:51Z
2020-09-30T14:31:02Z,42.805,6.029,13.2991,4.60012,2470.063,2020-9-30T16:31:54Z
2020-09-30T14:34:05Z,42.805,6.029,13.3001,4.60016,2470.077,2020-9-30T16:34:58Z
2020-09-30T14:37:08Z,42.805,6.029,13.2986,4.60006,2470.087,2020-9-30T16:38:01Z
2020-09-30T14:40:11Z,42.805,6.029,13.2997,4.60016,2470.063,2020-9-30T16:41:04Z
2020-09-30T14:43:14Z,42.805,6.029,13.2990,4.60011,2470.063,2020-9-30T16:44:07Z
2020-09-30T14:46:17Z,42.805,6.029,13.2992,4.60014,2470.133,2020-9-30T16:47:10Z
2020-09-30T14:49:20Z,42.805,6.029,13.2986,4.60014,2470.11,2020-9-30T16:50:13Z
2020-09-30T14:52:23Z,42.805,6.029,13.2990,4.60003,2470.087,2020-9-30T16:53:16Z
2020-09-30T14:55:27Z,42.805,6.029,13.2993,4.60014,2470.124,2020-9-30T16:56:19Z
2020-09-30T14:58:30Z,42.805,6.029,13.2994,4.60007,2470.087,2020-9-30T16:59:23Z
2020-09-30T15:01:33Z,42.805,6.029,13.2983,4.60004,2470.11,2020-9-30T17:02:26Z
2020-09-30T15:04:36Z,42.805,6.029,13.2991,4.60011,2470.087,2020-9-30T17:05:29Z
2020-09-30T15:07:39Z,42.805,6.029,13.2986,4.60018,2470.063,2020-9-30T17:08:32Z
2020-09-30T15:10:42Z,42.805,6.029,13.2989,4.60013,2470.133,2020-9-30T17:11:35Z
2020-09-30T15:13:45Z,42.805,6.029,13.2992,4.60009,2470.1,2020-9-30T17:14:38Z